Regional Weather Roundup
Issued by NWS Midland/Odessa, TX

Skip options and go directly to product.
Home | Oldest Version | Next Version | Current Version | All | Text Only | Save Text | Print | Product List | Glossary On

Skip product version selection by date and time.   
103
ASUS44 KMAF 280101
RWRMAF
MIDLAND AREA WEATHER ROUNDUP
NATIONAL WEATHER SERVICE MIDLAND TX
800 PM CDT SAT AUG 27 2016

...IN SOUTHWEST TEXAS AND SOUTHEAST NEW MEXICO...

CITY           SKY/WX    TMP DP  RH WIND       PRES   REMARKS
ALPINE         CLOUDY    74  63  70 S8        30.15R THUNDER
ANDREWS        NOT AVBL
ARTESIA        CLOUDY    82  61  47 S6        30.00S
BIG SPRING     CLOUDY    81  64  57 E17G25    30.02S
CARLSBAD       CLEAR     82  61  48 S6        29.98R
DRYDEN           N/A     82  68  62 SE12      29.95S
FORT STOCKTON  PTCLDY    83  63  50 SE10      30.00R
GUAD PASS      PTCLDY    75  58  55 NE10      30.14S
HOBBS          CLEAR     82  59  44 S7        30.03S
MARFA          TSTM     N/A N/A N/A NW10      30.12R
MIDLAND AIRPK  PTCLDY    86  60  41 E13       30.00R
MIDLAND INTL   CLEAR     87  59  38 S10       29.99R
ODESSA         CLEAR     85  56  37 SE10      30.00R
PECOS          CLEAR     87  61  42 SE8       29.95S
PRESIDIO       NOT AVBL
SEMINOLE       CLEAR     85  55  36 S6        30.02R
SNYDER           N/A     78  65  63 E12       30.02F
WINK           CLEAR     86  58  38 S8        29.95S
$$
...OTHER STATIONS IN TEXAS...

CITY           SKY/WX    TMP DP  RH WIND       PRES   REMARKS
ABILENE        CLOUDY    76  68  76 E7        30.01R
AMARILLO       PTCLDY    79  62  56 SE16      30.04R
AUSTIN         PTCLDY    86  71  60 E5        29.94R
BROWNSVILLE    CLEAR     85  74  69 E10       29.89R
CORPUS CHRISTI PTCLDY    86  72  62 E12       29.90R
DALLAS FTW     PTCLDY    86  68  54 SE7       29.96R
DEL RIO        PTCLDY    87  69  54 SE6       29.90R
EL PASO        MOCLDY    87  54  32 S3        29.99R
HOUSTON INT    CLOUDY    75  72  90 NE6       29.94R
LUBBOCK        PTCLDY    79  63  57 SE21      30.04R
SAN ANGELO     CLOUDY    81  67  62 NE15G22   29.98R
SAN ANTONIO    PTCLDY    84  69  60 E8        29.94R
WACO           CLEAR     84  71  65 E5        29.95R
WICHITA FALLS  NOT AVBL
$$
...OTHER LOCATIONS IN NEW MEXICO...

CITY           SKY/WX    TMP DP  RH WIND       PRES   REMARKS
ALAMAGORDO     CLEAR     81  55  41 NW7G17    30.04R
ALBUQUERQUE    MOCLDY    67  51  56 N3        30.17F
CANNON AFB     PTCLDY    79  56  45 SE10      30.05R
CLOVIS         MOCLDY    75  61  60 SE13      30.06R
HOLLOMAN AFB   NOT AVBL
ROSWELL        CLEAR     83  55  38 S8        29.99S
RUIDOSO          N/A     68  50  52 SE5       30.25
SANTA FE       CLOUDY    66  47  50 SW9       30.25R
TRUTH OR CONSE CLOUDY    74  50  42 NW13G18   30.10F
TUCUMCARI      PTCLDY    84  48  28 SW9       29.99S
$$

USA.gov is the U.S. government's official web portal to all federal, state and local government web resources and services.